Webcam & Metar

on

Mit unserer Webcam können Sie von überall die Situation auf dem Platz überblicken.  Sie können sowohl in Abflugrichtung Piste 26, als auch in Abflugrichtung Piste 08 die jeweilige Wetter- und Platzzitation einschätzen.

Weitere Informationen zum Platz erhalten Sie unter den Infos für Piloten.

Blick in Abflugrichtung Piste 26

Blick in Abflugrichtung Piste 08

Das aktuelle Metar für den in unmittelbarer Nähe zu Herzogenaurach gelegenen Flughafen Nürnberg EDDN:

EDDN 250620Z 11004KT 6000 -RA SCT008 BKN027 OVC043 08/08 Q1007 BECMG 4000 RA BKN008